Weather Roundup
Issued by NWS

Home | Current Version | Previous Version | Graphics & Text | Print | Product List | Glossary Off
Versions: 1 2 3 4 5 6 7 8 9 10 11 12 13 14 15 16 17 18 19 20 21 22 23 24 25 26 27 28 29 30 31 32 33 34 35 36 37 38 39 40 41 42 43 44 45 46 47 48 49 50

000
NZUS93 KARX 011159
HRRWXR

CURRENT HOURLY OBSERVATIONS ACROSS
MUCH OF THE UPPER MISSISSIPPI VALLEY
NATIONAL WEATHER SERVICE LA CROSSE WI
700 AM CDT SAT AUG 01 2015


...SOUTHEAST MINNESOTA...


CITY           SKY/WX    TMP DP  RH WIND       PRES   REMARKS
ROCHESTER      CLEAR     61  58  90 S5        29.99F
ROCHESTER/MAYO FAIR      65  58  80 S3        29.98F
WINONA         PTSUNNY   64  61  88 CALM      29.97S
AUSTIN         CLEAR     61  57  88 CALM      29.99S
ALBERT LEA     CLEAR     66  59  77 W5        29.99S
DODGE CENTER   CLEAR     61  57  88 W6        29.98S
PRESTON        PTCLDY    61  56  84 S3        30.00S
OWATONNA       CLEAR     63  57  82 SW5       29.98S
FARIBAULT      CLEAR     63  59  88 CALM      29.98R
$$

...ELSEWHERE IN MINNESOTA...


CITY           SKY/WX    TMP DP  RH WIND       PRES   REMARKS
MINNEAPOLIS    PTCLDY    68  60  75 SW5       29.96S
INTNL FALLS    SUNNY     55  51  86 W6        29.90S
DULUTH         SUNNY     60  51  72 W6        29.94S
RED WING       CLEAR     61  59  94 CALM      29.95F
REDWOOD FALLS  CLEAR     62  59  90 W6        29.97F
MANKATO        CLEAR     63  57  82 W8        29.98S
WORTHINGTON    CLEAR     63  57  82 W3        30.03R
FAIRMONT       CLEAR     64  55  72 W5        30.00R
$$

...SOUTHWEST WISCONSIN...


CITY           SKY/WX    TMP DP  RH WIND       PRES   REMARKS
LA CROSSE      CLOUDY    67  60  78 S3        29.97S
PRAIRIE DU CHI MOSUNNY   60  56  87 CALM      30.00S
BOSCOBEL       CLOUDY    62  59  90 SW5       30.00S
LONE ROCK      NOT AVBL
PLATTEVILLE    PTSUNNY   61  59  94 CALM      30.01S
FORT MC COY    MOSUNNY   54  51  92 CALM      29.99S
VIROQUA        CLOUDY    62  57  86 SW5       30.00S
WIS DELLS      SUNNY     58  54  85 CALM      29.98S
$$

...ELSEWHERE IN WISCONSIN...


CITY           SKY/WX    TMP DP  RH WIND       PRES   REMARKS
MILWAUKEE      SUNNY     68  51  54 W8        29.96S
MADISON        MOSUNNY   65  55  70 NW7       29.98R
GREEN BAY      SUNNY     61  54  77 W7        29.93R
EAU CLAIRE     NOT AVBL
BLACK RVR FLS  FAIR      53  53 100 S3        29.97S
MEDFORD        SUNNY     51  50  97 CALM      29.97R
WAUSAU         SUNNY     60  52  74 VRB7      29.94S
WIS RAPIDS     CLOUDY    60  52  74 NW3       29.98R
MARSHFIELD     PTSUNNY   60  52  74 NW6       29.97R
RICE LAKE      MOSUNNY   54  52  94 CALM      29.98F
$$

...NORTHEAST IOWA...


CITY           SKY/WX    TMP DP  RH WIND       PRES   REMARKS
DECORAH        CLEAR     59  59 100 CALM      30.00S
MASON CITY     CLEAR     69  63  81 W10       30.01S
CHARLES CITY   CLEAR     59  59 100 SW5       30.01S
OELWEIN        CLEAR     59  57  94 S3        30.02
$$

...ELSEWHERE IN IOWA...


CITY           SKY/WX    TMP DP  RH WIND       PRES   REMARKS
DES MOINES     PTCLDY    69  65  86 S5        30.03R
IOWA CITY      CLEAR     62  59  90 CALM      30.03S
FORT DODGE     CLEAR     63  59  88 CALM      30.03S
$$

...NORTHERN ILLINOIS...


CITY           SKY/WX    TMP DP  RH WIND       PRES   REMARKS
CHICAGO-OHARE  SUNNY     66  55  67 W7        29.99R
CHICAGO-MIDWAY MOSUNNY   69  53  56 W6        29.99S
MOLINE         SUNNY     62  58  86 CALM      30.02S
ROCKFORD       SUNNY     59  55  87 CALM      30.02S
PEORIA         SUNNY     65  60  84 SW3       30.05R
$$

NOTE: "FAIR" INDICATES FEW OR NO CLOUDS BELOW 12,000 FEET WITH NO
SIGNIFICANT WEATHER AND/OR OBSTRUCTIONS TO VISIBILITY. WIND
SPEEDS ARE IN MILES-PER-HOUR.



USA.gov is the U.S. government's official web portal to all federal, state and local government web resources and services.